Regional Weather Roundup
Issued by NWS

Home | Current Version | Previous Version | Graphics & Text | Print | Product List | Glossary On
Versions: 1 2 3 4 5 6 7 8 9 10 11 12 13 14 15 16 17 18 19 20 21 22 23 24 25 26 27 28 29 30 31 32 33 34 35 36 37 38 39 40 41 42 43 44 45 46 47 48 49 50
000
ASUS43 KMKX 231720
RWRWI

WISCONSIN REGIONAL WEATHER ROUNDUP
NATIONAL WEATHER SERVICE MILWAUKEE/SULLIVAN WI
1100 AM CST MON JAN 23 2017

NOTE: "FAIR" INDICATES FEW OR NO CLOUDS BELOW 12,000 FEET WITH NO
SIGNIFICANT WEATHER AND/OR OBSTRUCTIONS TO VISIBILITY.

WIZ001-002-006>008-014>016-023>028-231800-
NORTHWEST WISCONSIN

CITY           SKY/WX    TMP DP  RH WIND       PRES   REMARKS
SUPERIOR ARPT  CLOUDY    38  34  87 CALM      29.79F
ASHLAND        CLOUDY    36  35  96 SW5       29.79S FOG     WCI  32
HAYWARD        CLOUDY    36  34  92 CALM      29.78F FOG
SIREN          CLOUDY    34  34  99 CALM      29.81S FOG
CUMBERLAND     CLOUDY    34  32  93 CALM      29.80S
RICE LAKE      CLOUDY    34  34 100 CALM      29.82S FOG
CHETEK         CLOUDY    34  34 100 CALM      29.80F FOG
LADYSMITH      CLOUDY    35  35  99 W3        29.81S FOG
EAU CLAIRE     CLOUDY    34  34 100 CALM      29.80F FOG
MENOMONIE        N/A    N/A N/A N/A MISG        N/A
NEW RICHMOND   CLOUDY    34  34 100 CALM      29.83R FOG
OSCEOLA        CLOUDY    35  35 100 CALM      29.85R FOG
$$

WIZ003>005-009-010-017-018-231800-
NORTH CENTRAL WISCONSIN

CITY           SKY/WX    TMP DP  RH WIND       PRES   REMARKS
MANITOWISH WTR CLOUDY    33  33 100 SW3       29.75F
ARBOR VITAE    CLOUDY    36  36  97 CALM      29.76S
WOODRUFF       CLOUDY    36  36  97 CALM      29.76S
RHINELANDER    CLOUDY    35  34  96 CALM      29.76F
EAGLE RIVER    CLOUDY    33  33 100 CALM      29.75F
LAND O LAKES   CLOUDY    34  34 100 CALM      29.77S
PHILLIPS       FOG       33  33 100 SW5       29.77S VSB 3/4 WCI  29
TOMAHAWK       CLOUDY    34  33  96 W3        29.77F
MEDFORD        FOG       33  33  99 W6        29.77F VSB<1/4 WCI  27
MERRILL        CLOUDY    35  34  97 CALM        N/A
$$

WIZ029-030-035-036-043>047-231800-
CENTRAL WISCONSIN

CITY           SKY/WX    TMP DP  RH WIND       PRES   REMARKS
WAUSAU         CLOUDY    34  33  96 W3        29.76F
MOSINEE        CLOUDY    34  34 100 NW3       29.79S
MARSHFIELD     FOG       34  33  96 NW6       29.77S VSB 1   WCI  29
STEVENS POINT  CLOUDY    34  34  99 CALM      29.79S
WAUPACA        CLOUDY    38  35  89 CALM      29.79S
WAUTOMA        CLOUDY    36  36 100 NW6       29.80S WCI  31
WISC RAPIDS    CLOUDY    35  35 100 NW6       29.80S WCI  30
CAMP DOUGLAS   FOG       36  36 100 W7        29.80S VSB 3/4 WCI  30
$$

WIZ011>013-019>022-031-037>040-048>050-231800-
NORTHEAST WISCONSIN

CITY           SKY/WX    TMP DP  RH WIND       PRES   REMARKS
ANTIGO         CLOUDY    34  32  94 N3        29.76S
SHAWANO        CLOUDY    39  35  85 CALM      29.79S
OCONTO         CLOUDY    36  33  92 NW3       29.78F
STURGEON BAY   FOG       36  35  96 NW6       29.77F VSB 1/4 WCI  31
GREEN BAY      CLOUDY    39  36  89 NW3       29.78S
MANITOWOC      CLOUDY    38  37  97 MISG      29.78S FOG
APPLETON       CLOUDY    36  36 100 NW6       29.77S WCI  31
CLINTONVILLE   CLOUDY    36  34  93 NW3       29.79S
OSHKOSH        CLOUDY    36  35  96 NW3       29.78S
$$

WIZ032>034-041-042-053>061-231800-
SOUTHWEST WISCONSIN

CITY           SKY/WX    TMP DP  RH WIND       PRES   REMARKS
LA CROSSE      CLOUDY    41  34  76 CALM      29.82F
SPARTA         CLOUDY    34  34 100 CALM      29.82F FOG
VIROQUA        CLOUDY    34  34 100 W5        29.80S WCI  30
BOSCOBEL       CLOUDY    39  34  82 W3        29.82F
PRAIRIE DU CHI CLOUDY    36  32  87 NW7       29.84R WCI  30
PLATTEVILLE    CLOUDY    37  37 100 N7        29.81S WCI  31
$$

WIZ056-057-062-063-064-067-068-231800-
SOUTH CENTRAL WISCONSIN

CITY           SKY/WX    TMP DP  RH WIND       PRES   REMARKS
REEDSBURG      CLOUDY    35  35 100 W6        29.80S FOG     WCI  30
BARABOO/DELLS  CLOUDY    36  35  99 NW5       29.79F WCI  32
LONE ROCK      CLOUDY    40  34  79 W6        29.81F
MINERAL POINT  CLOUDY    39  37  93 NW9       29.79F WCI  33
MADISON        CLOUDY    39  35  86 NW7       29.80R WCI  34
MIDDLETON      CLOUDY    38  38 100 NW7       29.80S WCI  33
WATERTOWN      CLOUDY    36  36 100 NW6       29.79R WCI  32
MONROE         CLOUDY    37  36  93 N8        29.79S WCI  31
JANESVILLE     CLOUDY    41  37  87 N12       29.79R
$$

WIZ051-052-058>065-066-070>072-231800-
SOUTHEAST WISCONSIN

CITY           SKY/WX    TMP DP  RH WIND       PRES   REMARKS
MILWAUKEE      CLOUDY    41  37  86 NW6       29.78S
WAUKESHA       FOG       36  36 100 NW7       29.78F VSB 1   WCI  30
MILWAUKEE/TIMM CLOUDY    37  36  93 N6        29.79S FOG     WCI  33
RACINE         CLOUDY    39  36  89 N5        29.79S
KENOSHA        CLOUDY    39  36  89 NW7       29.78S WCI  34
FOND DU LAC    CLOUDY    37  34  89 NW7       29.78F WCI  32
SHEBOYGAN      CLOUDY    38  36  92 NW9       29.77F FOG     WCI  31
WEST BEND      CLOUDY    36  36 100 NW7       29.78S FOG     WCI  30
JUNEAU         CLOUDY    35  34  98 NW7       29.80S WCI  29
$$

LSZ147-162-231800-
LAKE SUPERIOR

STATION/POSITION TIME  TEMP    WIND        PRES    WAVE
                       AIR SEA DIR/SP/G            HT/PER
                 (UTC) (F)     (DEG/KT/KT) (MB)    (FT/S)
DEVILS ISLAND    1700   34     220/  6/  7 1009.4R
PORT WING        1640   36     250/  6/  8 1009.1S
SAXON HARBOR     1640   36     200/  2/  3 1008.8R
$$

LMZ867-665-643>646-231800-
LAKE MICHIGAN

STATION/POSITION TIME  TEMP    WIND        PRES    WAVE
                       AIR SEA DIR/SP/G            HT/PER
                 (UTC) (F)     (DEG/KT/KT) (MB)    (FT/S)
NORTHPORT PIER   1640   34     320/  3/  5 1008.5S
SISTER BAY       1535   35        CALM       N/A
KEWAUNEE LAKESHO 1654   37     310/  5/  7 1007.9S
SHEBOYGAN LAKESH 1700   38     330/  8/  9 1008.2F
PORT WASHINGTON  1630   39     330/  5/  7 1009.5F
KENOSHA   LAKESH 1700   36      30/  4/  6 1008.5
$$

TC  - TEMPERATURE IN CELSIUS
VSB - VISIBILITY IN STATUTE MILES
WCI - WIND CHILL INDEX
HX  - HEAT INDEX





USA.gov is the U.S. government's official web portal to all federal, state and local government web resources and services.